TimeHST,TemperatureF,Dew PointF,Humidity,Sea Level PressureIn,VisibilityMPH,Wind Direction,Wind SpeedMPH,Gust SpeedMPH,PrecipitationIn,Events,Conditions,WindDirDegrees,DateUTC
12:53 AM,73.9,64.0,71,30.00,10.0,NNE,4.6,-,N/A,,Partly Cloudy,30,2013-07-04 10:53:00
1:53 AM,73.9,63.0,68,29.99,10.0,Calm,Calm,-,N/A,,Partly Cloudy,0,2013-07-04 11:53:00
2:53 AM,73.0,64.0,73,29.97,10.0,North,4.6,-,N/A,,Partly Cloudy,350,2013-07-04 12:53:00
3:53 AM,73.0,64.0,73,29.97,10.0,NNW,5.8,-,N/A,,Partly Cloudy,330,2013-07-04 13:53:00
4:53 AM,72.0,64.0,76,29.97,10.0,NW,4.6,-,N/A,,Partly Cloudy,320,2013-07-04 14:53:00
5:53 AM,72.0,64.0,76,29.98,10.0,Calm,Calm,-,N/A,,Scattered Clouds,0,2013-07-04 15:53:00
6:53 AM,73.9,64.9,73,30.00,10.0,NW,4.6,-,N/A,,Scattered Clouds,320,2013-07-04 16:53:00
7:53 AM,78.1,64.0,62,30.01,10.0,Variable,6.9,18.4,N/A,,Scattered Clouds,0,2013-07-04 17:53:00
8:53 AM,80.1,64.0,58,30.02,10.0,East,11.5,-,N/A,,Scattered Clouds,80,2013-07-04 18:53:00
9:53 AM,82.0,63.0,52,30.02,10.0,ESE,6.9,-,N/A,,Mostly Cloudy,110,2013-07-04 19:53:00
10:53 AM,84.0,64.0,51,30.01,10.0,NE,10.4,19.6,N/A,,Mostly Cloudy,50,2013-07-04 20:53:00
11:53 AM,84.9,62.1,46,30.00,10.0,NE,15.0,-,N/A,,Mostly Cloudy,40,2013-07-04 21:53:00
12:53 PM,86.0,64.0,48,30.00,10.0,ENE,13.8,-,N/A,,Scattered Clouds,60,2013-07-04 22:53:00
1:53 PM,86.0,63.0,46,29.99,10.0,NNE,12.7,20.7,N/A,,Scattered Clouds,30,2013-07-04 23:53:00
2:53 PM,86.0,64.0,48,29.98,10.0,NE,15.0,-,N/A,,Mostly Cloudy,40,2013-07-05 00:53:00
3:53 PM,84.0,63.0,49,29.97,10.0,NE,15.0,-,N/A,,Scattered Clouds,50,2013-07-05 01:53:00
4:53 PM,82.9,63.0,51,29.97,10.0,NE,15.0,-,N/A,,Scattered Clouds,50,2013-07-05 02:53:00
5:53 PM,82.0,63.0,52,29.98,10.0,NE,13.8,-,N/A,,Scattered Clouds,40,2013-07-05 03:53:00
6:53 PM,78.1,63.0,60,29.99,10.0,NE,11.5,-,N/A,,Partly Cloudy,40,2013-07-05 04:53:00
7:53 PM,77.0,64.9,66,30.01,10.0,NE,11.5,-,N/A,,Partly Cloudy,40,2013-07-05 05:53:00
8:53 PM,75.9,64.9,69,30.02,10.0,NE,12.7,-,N/A,,Scattered Clouds,40,2013-07-05 06:53:00
9:53 PM,75.9,64.0,67,30.04,10.0,Calm,Calm,-,N/A,,Scattered Clouds,0,2013-07-05 07:53:00
10:53 PM,75.0,64.0,69,30.05,10.0,NNE,5.8,-,N/A,,Partly Cloudy,20,2013-07-05 08:53:00
11:53 PM,75.0,64.0,69,30.04,10.0,Calm,Calm,-,N/A,,Partly Cloudy,0,2013-07-05 09:53:00